Location: Newark
(58.8333°N, 23.5833°E)
Time: 23:26:18
(UTC+00:00)

Tiros 1 despin weight - Pass Details

Date: 22 November 2019
Orbit: 594 x 642 km, 48.2° (Epoch: 08 December)

Event Time Altitude Azimuth Distance (km) Brightness Sun altitude
Rises 11:45:51 0° 223° (SW) 2,824 ? 8.7°
Reaches altitude 10° 11:48:47 10° 203° (SSW) 1,926 ? 8.5°
Maximum altitude 11:51:38 17° 163° (SSE) 1,528 ? 8.4°
Drops below altitude 10° 11:54:29 10° 123° (ESE) 1,938 ? 8.2°
Sets 11:57:26 0° 103° (ESE) 2,850 ? 8.1°
